RYR215 LIMC-LOWW

Flight info

Callsign RYR215
Flight time N/A
Altitude 34000
Route OSKOR DCT NESTI DCT ARALD/N0425F330 DCT ABTAN ABTAN2W
Aircraft B738/M-SDE2E3FGHIRWXY/LB1

Departure

Time 2026-05-06 18:20
Airport Milan Malpensa International Airport (LIMC)

Arrival

Time N/A
Airport Vienna International Airport (LOWW)
Time Latitude Longitude Altitude Speed Heading
2026-05-06 17:32 45.62553 8.71672 748 ft 0 kts 169°
2026-05-06 18:05 45.62571 8.71667 728 ft 4 kts 164°
2026-05-06 18:06 45.62587 8.71659 749 ft 4 kts 156°
2026-05-06 18:06 45.62610 8.71640 747 ft 4 kts 133°
2026-05-06 18:06 45.62620 8.71611 747 ft 0 kts 79°
2026-05-06 18:11 45.62621 8.71617 752 ft 2 kts 79°
2026-05-06 18:11 45.62626 8.71651 750 ft 3 kts 79°
2026-05-06 18:12 45.62627 8.71665 749 ft 1 kts 78°
2026-05-06 18:12 45.62629 8.71677 751 ft 2 kts 78°
2026-05-06 18:12 45.62633 8.71702 752 ft 3 kts 78°
2026-05-06 18:12 45.62639 8.71748 752 ft 7 kts 78°
2026-05-06 18:13 45.62650 8.71822 752 ft 8 kts 78°
2026-05-06 18:13 45.62661 8.71903 749 ft 9 kts 79°
2026-05-06 18:13 45.62677 8.72020 751 ft 13 kts 79°
2026-05-06 18:13 45.62656 8.72137 747 ft 13 kts 152°
2026-05-06 18:14 45.62563 8.72166 748 ft 14 kts 169°
2026-05-06 18:14 45.62459 8.72194 748 ft 16 kts 169°
2026-05-06 18:14 45.62339 8.72228 750 ft 18 kts 169°
2026-05-06 18:14 45.62244 8.72259 749 ft 11 kts 148°
2026-05-06 18:15 45.62228 8.72360 749 ft 12 kts 80°
2026-05-06 18:15 45.62244 8.72487 745 ft 14 kts 79°
2026-05-06 18:15 45.62261 8.72616 747 ft 13 kts 79°
2026-05-06 18:15 45.62278 8.72741 751 ft 13 kts 78°
2026-05-06 18:16 45.62296 8.72863 747 ft 12 kts 78°
2026-05-06 18:16 45.62304 8.72981 752 ft 12 kts 104°
2026-05-06 18:16 45.62237 8.73038 748 ft 12 kts 169°
2026-05-06 18:16 45.62156 8.73060 751 ft 12 kts 169°
2026-05-06 18:17 45.62070 8.73084 751 ft 13 kts 169°
2026-05-06 18:17 45.61985 8.73107 750 ft 12 kts 170°
2026-05-06 18:17 45.61897 8.73130 748 ft 13 kts 169°
2026-05-06 18:17 45.61798 8.73159 749 ft 15 kts 166°
2026-05-06 18:18 45.61721 8.73246 750 ft 14 kts 123°
2026-05-06 18:18 45.61666 8.73361 750 ft 14 kts 124°
2026-05-06 18:18 45.61615 8.73470 751 ft 13 kts 123°
2026-05-06 18:18 45.61584 8.73584 750 ft 12 kts 92°
2026-05-06 18:19 45.61595 8.73698 743 ft 11 kts 75°
2026-05-06 18:19 45.61659 8.73725 742 ft 11 kts 350°
2026-05-06 18:19 45.61783 8.73694 745 ft 38 kts 348°
2026-05-06 18:19 45.62282 8.73555 744 ft 106 kts 349°
2026-05-06 18:20 45.63198 8.73315 760 ft 159 kts 351°
2026-05-06 18:20 45.64327 8.73054 1331 ft 167 kts 351°
2026-05-06 18:20 45.65536 8.72782 1879 ft 184 kts 358°
2026-05-06 18:20 45.66778 8.73384 2235 ft 206 kts 44°
2026-05-06 18:21 45.67519 8.75237 2414 ft 227 kts 70°
2026-05-06 18:21 45.68091 8.77427 2663 ft 238 kts 69°
2026-05-06 18:21 45.68991 8.79286 2955 ft 222 kts 40°
2026-05-06 18:21 45.70195 8.80618 3503 ft 216 kts 39°
2026-05-06 18:22 45.71380 8.81985 4134 ft 217 kts 40°
2026-05-06 18:22 45.72375 8.83686 4448 ft 232 kts 66°
2026-05-06 18:22 45.72827 8.85929 4931 ft 238 kts 86°
2026-05-06 18:22 45.72761 8.88296 5516 ft 239 kts 103°
2026-05-06 18:23 45.72127 8.90465 6099 ft 238 kts 133°
2026-05-06 18:23 45.70159 8.92541 6948 ft 240 kts 142°
2026-05-06 18:23 45.65734 8.99945 9162 ft 252 kts 129°
2026-05-06 18:23 45.64779 9.02033 9662 ft 260 kts 113°
2026-05-06 18:24 45.64517 9.05139 10104 ft 274 kts 92°
2026-05-06 18:24 45.64641 9.16070 12061 ft 286 kts 92°
2026-05-06 18:24 45.64731 9.27500 14177 ft 296 kts 93°
2026-05-06 18:24 45.64779 9.39453 16376 ft 305 kts 94°
2026-05-06 18:25 45.64813 9.51876 18310 ft 318 kts 94°
2026-05-06 18:25 45.64831 9.61303 19351 ft 326 kts 95°